This is the latest recevied weather packets stored in our database for station/object DH8TOM-4. If no packets are shown the sender has not sent any weather packets the latest 10 day(s).
| Time | Temp. | Humidity | Pressure | Rain* | Wind** | Luminosity | Snow |
|---|---|---|---|---|---|---|---|
| 1787407084 | 18.89° C | 76% | 1016.3 hPa | - | - | - | - |
| 1787406783 | 18.89° C | 76% | 1016.3 hPa | - | - | - | - |
| 1787406481 | 18.33° C | 77% | 1016.3 hPa | - | - | - | - |
| 1787406180 | 18.33° C | 77% | 1016.3 hPa | - | - | - | - |
| 1787405880 | 18.33° C | 80% | 1016.3 hPa | - | - | - | - |
| 1787405578 | 18.89° C | 81% | 1016.3 hPa | - | - | - | - |
| 1787405278 | 18.89° C | 81% | 1016.3 hPa | - | - | - | - |
| 1787404977 | 19.44° C | 82% | 1016 hPa | - | - | - | - |
| 1787404675 | 19.44° C | 82% | 1016 hPa | - | - | - | - |
| 1787404375 | 19.44° C | 82% | 1016 hPa | - | - | - | - |
| 1787404073 | 20° C | 80% | 1016 hPa | - | - | - | - |
| 1787403772 | 20° C | 80% | 1016 hPa | - | - | - | - |
| 1787403472 | 21.11° C | 80% | 1015.8 hPa | - | - | - | - |
| 1787403170 | 21.11° C | 80% | 1015.8 hPa | - | - | - | - |
| 1787402869 | 21.67° C | 83% | 1015.6 hPa | - | - | - | - |
| 1787402569 | 21.67° C | 83% | 1015.6 hPa | - | - | - | - |
| 1787402268 | 21.67° C | 92% | 1015.5 hPa | - | - | - | - |
| 1787401966 | 21.67° C | 92% | 1015.5 hPa | - | - | - | - |
| 1787401666 | 21.67° C | 98% | 1015.5 hPa | - | - | - | - |
| 1787401364 | 21.11° C | 100% | 1015.5 hPa | - | - | - | - |
| 1787401063 | 21.11° C | 100% | 1015.5 hPa | - | - | - | - |
| 1787400763 | 20.56° C | 100% | 1015.5 hPa | - | - | - | - |
| 1787400461 | 20.56° C | 100% | 1015.5 hPa | - | - | - | - |
| 1787400161 | 20.56° C | 100% | 1015.5 hPa | - | - | - | - |
| 1787399859 | 20.56° C | 100% | 1015.4 hPa | - | - | - | - |
* Rain since midnight (hover to see other rain measurements)
** Current wind speed in m/s (hover to see current wind gust speed)